Weather History for Westminster, MD

Change the Weather History Date:

Friday, February 8, 2013

  Actual Average (KTHV) Record (KTHV)
Temperature  
Mean Temperature 34 °F -  
Max Temperature 37 °F 0 °F 59 °F (2009)
Min Temperature 30 °F - 1 °F (2000)
Degree Days  
Heating Degree Days 32    
Moisture  
Dew Point 30 °F    
Average Humidity 86    
Maximum Humidity 100    
Minimum Humidity 75    
Precipitation  
Precipitation 0.03 in - - ()
Sea Level Pressure  
Sea Level Pressure 29.91 in    
Wind  
Wind Speed 5 mph (NNW)    
Max Wind Speed 23 mph    
Max Gust Speed 36 mph    
Visibility 6 miles    
Events Rain , Snow    
Averages and records for this station are not official NWS values.
T = Trace of Precipitation, MM = Missing Value Source: NWS Daily Summary

Daily Weather History Graph

Daily Weather History Graph

Search for Another Location

Airport:

Trip Planner

Search our weather history database for the weather conditions in past years. The results will help you decide how hot, cold, wet, or windy it might be!

Date:

Astronomy

Feb. 08, 2013 Rise Set
Actual Time 7:08 AM EST 5:36 PM EST
Civil Twilight 6:40 AM EST 6:04 PM EST
Nautical Twilight 6:08 AM EST 6:36 PM EST
Astronomical Twilight 5:37 AM EST 7:07 PM EST
Moon 5:35 AM EST (2/8) 4:07 PM EST (2/8)
Length of Visible Light 11h 24m
Length of Day
10h 28m
Waning Crescent, 3% of the Moon is Illuminated
Feb 8
Waning Crescent
Feb 10
New
Feb 17
First Quarter
Feb 25
Full
Mar 4
Last Quarter

Hourly Weather History & Observations

Time (EST) Temp. Windchill Dew Point Humidity Pressure Visibility Wind Dir Wind Speed Gust Speed Precip Events Conditions
12:00 AM 32.0 °F - 24.8 °F 75% 30.21 in 10.0 mi Calm Calm - N/A   Overcast
12:20 AM 32.0 °F 27.5 °F 24.8 °F 75% 30.20 in 10.0 mi East 4.6 mph - N/A   Overcast
12:40 AM 32.0 °F - 24.8 °F 75% 30.19 in 10.0 mi Calm Calm - N/A   Overcast
1:00 AM 32.0 °F 28.7 °F 24.8 °F 75% 30.17 in 10.0 mi East 3.5 mph - N/A   Overcast
1:20 AM 32.0 °F 27.5 °F 24.8 °F 75% 30.15 in 10.0 mi East 4.6 mph - N/A   Overcast
1:40 AM 32.0 °F - 24.8 °F 75% 30.14 in 10.0 mi Calm Calm - N/A   Overcast
2:00 AM 32.0 °F 26.4 °F 24.8 °F 75% 30.13 in 10.0 mi East 5.8 mph - N/A   Overcast
2:20 AM 32.0 °F 27.5 °F 24.8 °F 75% 30.11 in 10.0 mi East 4.6 mph - N/A   Overcast
2:40 AM 33.8 °F 28.6 °F 26.6 °F 75% 30.10 in 10.0 mi East 5.8 mph - N/A   Overcast
3:00 AM 33.8 °F - 26.6 °F 75% 30.10 in 10.0 mi Calm Calm - N/A   Overcast
3:20 AM 33.8 °F - 26.6 °F 75% 30.10 in 10.0 mi Calm Calm - N/A   Overcast
3:40 AM 33.8 °F - 26.6 °F 75% 30.09 in 10.0 mi Calm Calm - N/A   Overcast
4:00 AM 33.8 °F 30.8 °F 26.6 °F 75% 30.07 in 10.0 mi ENE 3.5 mph - N/A   Overcast
4:40 AM 33.8 °F - 26.6 °F 75% 30.06 in 10.0 mi Calm Calm - N/A   Overcast
5:00 AM 33.8 °F - 28.4 °F 81% 30.05 in 7.0 mi Calm Calm - N/A Rain Rain
5:20 AM 33.8 °F - 28.4 °F 81% 30.04 in 7.0 mi Calm Calm - N/A   Overcast
5:40 AM 33.8 °F 30.8 °F 28.4 °F 81% 30.03 in 5.0 mi North 3.5 mph - N/A Snow Light Snow
6:00 AM 33.8 °F 30.8 °F 28.4 °F 81% 30.02 in 7.0 mi NNE 3.5 mph - N/A   Overcast
7:00 AM 30.2 °F 26.7 °F 28.4 °F 93% 30.01 in 4.0 mi North 3.5 mph - 0.01 in   Overcast
7:20 AM 30.2 °F 24.3 °F 28.4 °F 93% 30.00 in 3.0 mi NNW 5.8 mph - 0.01 in Snow Light Snow
7:40 AM 30.2 °F 24.3 °F 28.4 °F 93% 29.99 in 2.0 mi North 5.8 mph - 0.02 in Snow Light Snow
9:10 AM 32.0 °F 26.4 °F 30.2 °F 93% 29.93 in 4.0 mi NNE 5.8 mph - N/A   Overcast
9:30 AM 32.0 °F 27.5 °F 30.2 °F 93% 29.92 in 4.0 mi North 4.6 mph - N/A   Overcast
9:50 AM 32.0 °F 26.4 °F 30.2 °F 93% 29.91 in 2.5 mi North 5.8 mph - N/A   Overcast
10:10 AM 32.0 °F 26.4 °F 30.2 °F 93% 29.89 in 1.5 mi NNE 5.8 mph - N/A   Overcast
10:30 AM 33.8 °F 29.6 °F 30.2 °F 87% 29.88 in 1.0 mi North 4.6 mph - N/A   Overcast
10:50 AM 33.8 °F 29.6 °F 30.2 °F 87% 29.87 in 1.0 mi North 4.6 mph - N/A   Overcast
11:10 AM 33.8 °F 28.6 °F 32.0 °F 93% 29.86 in 0.8 mi North 5.8 mph - N/A   Overcast
11:30 AM 35.6 °F 31.7 °F 33.8 °F 93% 29.84 in 1.2 mi NNE 4.6 mph - N/A   Overcast
11:50 AM 35.6 °F 31.7 °F 33.8 °F 93% 29.83 in 1.2 mi North 4.6 mph - N/A   Overcast
12:10 PM 35.6 °F 30.7 °F 33.8 °F 93% 29.82 in 1.2 mi North 5.8 mph - N/A   Overcast
12:30 PM 35.6 °F 32.8 °F 33.8 °F 93% 29.81 in 1.2 mi NNW 3.5 mph - N/A   Overcast
12:50 PM 35.6 °F 31.7 °F 33.8 °F 93% 29.81 in 1.0 mi NNW 4.6 mph - N/A   Overcast
1:10 PM 35.6 °F 30.7 °F 33.8 °F 93% 29.79 in 0.2 mi North 5.8 mph - N/A   Drizzle
1:30 PM 35.6 °F 29.9 °F 33.8 °F 93% 29.77 in 0.8 mi NE 6.9 mph - N/A   Overcast
1:50 PM 37.4 °F 30.3 °F 35.6 °F 93% 29.76 in 3.0 mi NE 10.4 mph - N/A   Overcast
2:10 PM 37.4 °F 32.8 °F 35.6 °F 93% 29.77 in 4.0 mi NNW 5.8 mph - N/A   Overcast
2:30 PM 37.4 °F 32.8 °F 35.6 °F 93% 29.77 in 2.5 mi WNW 5.8 mph - N/A   Overcast
2:50 PM 35.6 °F 30.7 °F 35.6 °F 100% 29.75 in 2.5 mi North 5.8 mph - N/A   Overcast
3:10 PM 35.6 °F 30.7 °F 33.8 °F 93% 29.75 in 2.5 mi North 5.8 mph - N/A   Drizzle
3:30 PM 35.6 °F 32.8 °F 35.6 °F 100% 29.75 in 1.5 mi NNW 3.5 mph - N/A Rain Light Rain
3:45 PM 35.6 °F 29.2 °F 33.8 °F 93% 29.76 in 1.2 mi NW 8.1 mph - N/A Rain Light Rain
4:15 PM 35.6 °F 28.0 °F 33.8 °F 93% 29.77 in 1.0 mi NW 10.4 mph - 0.01 in Snow Snow
4:35 PM 33.8 °F 28.6 °F 33.8 °F 100% 29.77 in 1.2 mi NNW 5.8 mph - 0.01 in Snow Light Snow
4:55 PM 33.8 °F 29.6 °F 33.8 °F 100% 29.76 in 1.5 mi North 4.6 mph - N/A Rain Light Rain
5:15 PM 33.8 °F 30.8 °F 33.8 °F 100% 29.75 in 1.5 mi North 3.5 mph - N/A Rain Light Rain
5:35 PM 35.6 °F 31.7 °F 33.8 °F 93% 29.77 in 1.8 mi NW 4.6 mph - N/A   Overcast
5:55 PM 33.8 °F 29.6 °F 33.8 °F 100% 29.77 in 2.0 mi NW 4.6 mph - N/A   Overcast
6:35 PM 35.6 °F 32.8 °F 33.8 °F 93% 29.77 in 2.5 mi NW 3.5 mph - N/A   Overcast
6:55 PM 35.6 °F 31.7 °F 33.8 °F 93% 29.78 in 2.0 mi WNW 4.6 mph - N/A   Overcast
7:15 PM 35.6 °F 30.7 °F 33.8 °F 93% 29.78 in 5.0 mi WNW 5.8 mph - N/A   Overcast
7:35 PM 35.6 °F 29.2 °F 33.8 °F 93% 29.79 in 7.0 mi WNW 8.1 mph - N/A   Overcast
7:55 PM 35.6 °F 27.5 °F 33.8 °F 93% 29.79 in 10.0 mi WNW 11.5 mph 18.4 mph N/A   Overcast
8:15 PM 35.6 °F 25.9 °F 30.2 °F 81% 29.80 in 10.0 mi WNW 16.1 mph 28.8 mph N/A   Overcast
8:35 PM 35.6 °F 26.2 °F 30.2 °F 81% 29.81 in 10.0 mi WNW 15.0 mph 25.3 mph N/A   Overcast
8:55 PM 35.6 °F 24.5 °F 28.4 °F 75% 29.82 in 10.0 mi WNW 20.7 mph 26.5 mph N/A   Overcast
9:15 PM 33.8 °F 21.6 °F 26.6 °F 75% 29.83 in 10.0 mi WNW 23.0 mph 32.2 mph N/A   Overcast
9:35 PM 33.8 °F 23.9 °F 26.6 °F 75% 29.83 in 10.0 mi WNW 15.0 mph 26.5 mph N/A   Overcast
9:55 PM 33.8 °F 22.2 °F 26.6 °F 75% 29.84 in 10.0 mi WNW 20.7 mph 35.7 mph N/A   Overcast
10:55 PM 32.0 °F 20.5 °F 24.8 °F 75% 29.88 in 10.0 mi WNW 18.4 mph 29.9 mph N/A   Overcast
11:15 PM 30.2 °F 17.1 °F 24.8 °F 80% 29.88 in 10.0 mi NW 21.9 mph 34.5 mph N/A   Overcast
11:35 PM 30.2 °F 17.4 °F 23.0 °F 75% 29.89 in 10.0 mi NW 20.7 mph 29.9 mph N/A   Overcast
11:55 PM 30.2 °F 18.5 °F 23.0 °F 75% 29.90 in 10.0 mi NW 17.3 mph 21.9 mph N/A   Overcast